Details From GCTS - Tenerife Sur
To GCLA - La Palma
Flight Number -
Tags generated
Created
Modified
Stats Distance 74 nm / 138 km
Max Altitude 2,300 ft / 701 m
Waypoints 3
Social Downloads 2
Likes 0
Share

Download

Looking for another format? Having issues loading an existing format? Contact us
Advertisement - Login to hide

Notes

Basic altitude profile: - Ascent Rate: 2500ft/min - Ascent Speed: 250kts - Cruise Altitude: 35000ft - Cruise Speed: 420kts - Descent Rate: 1500ft/min - Descent Speed: 250kts Options: - Use NATs: yes - Use PACOTS: yes - Use low airways: yes - Use high airways: yes

Route

GCTS TFS GCLA

ID Type Via Altitude (ft/m) Position (lat/lon) Dist (leg/tot) Name
O GCTS APT - 0 / 0 28.04448 / -16.57249 - / 0 nm Tenerife Sur
TFS VOR - 2,300 / 701 28.00245 / -16.68793 6 / 6 nm TENERIFE SUR VOR-DME
O GCLA APT - 0 / 0 28.62648 / -17.75561 67 / 74 nm La Palma

Altitude Profile

Advertisement - Login to hide

GCTS

Details ICAO GCTS (TFS)
Name Tenerife Sur-Reina Sofia
Region Canary Islands
Timezone Atlantic/Canary (UTC+1.0)
Stats Elevation 208 ft / 63 m (AMSL)
Location 28.044400° -16.572500°
Runways 1
Magnetic Variation 4.831° W

METAR

GCTS 300200Z 12004KT 090V150 9999 BKN020 21/16 Q1014 NOSIG

Decode

TAF

TAF GCTS 292000Z 2921/3021 35006KT 9999 SCT020 TX24/3014Z TN18/3006Z

Decode

Departure Runways

ID Width Length Bearing (true/mag) Surface Threshold Overrun Markings Lighting
07 148 ft / 45 m 10,489 ft / 3,197 m 68.47° / 73.31° ASPHALT 0 ft / 0 m 0 ft / 0 m PREC-APP CENTERLINE EDGE THRESHOLD CALVERT-ILS REIL-OMNI
25 148 ft / 45 m 10,489 ft / 3,197 m 248.49° / 253.32° ASPHALT 0 ft / 0 m 0 ft / 0 m PREC-APP CENTERLINE EDGE THRESHOLD CALVERT-ILS REIL-OMNI

GCLA

Details ICAO GCLA (SPC)
Name La Palma
Region Canary Islands
Timezone Atlantic/Canary (UTC+1.0)
Stats Elevation 106 ft / 32 m (AMSL)
Location 28.626400° -17.755600°
Runways 1
Magnetic Variation 5.231° W

METAR

GCLA 300200Z AUTO 36006KT 300V060 9999 OVC042 22/15 Q1014

Decode

TAF

TAF GCLA 292000Z 2921/3021 32006KT 9999 BKN020 TX22/3014Z TN18/3006Z

Decode

Destination Runways

ID Width Length Bearing (true/mag) Surface Threshold Overrun Markings Lighting
18 148 ft / 45 m 7,225 ft / 2,202 m 179.01° / 184.24° ASPHALT 0 ft / 0 m 279 ft / 85 m UK-PREC-APP CENTERLINE EDGE THRESHOLD SALS
36 148 ft / 45 m 7,225 ft / 2,202 m 359.01° / 4.24° ASPHALT 0 ft / 0 m 243 ft / 74 m PREC-APP CENTERLINE EDGE THRESHOLD

Popular Alternatives